User: anonymous   Login
Location: Caltech
(34.1382°N, 118.1253°W)
Time: 20:36:12
(UTC-07:00)
Language:

Iridium 49 - Orbit

View from above orbital plane
View from above orbital plane
View from above satellite
View from above satellite

Ground track
Ground track

The orbit data is extracted from the following two-line orbital elements,

1 25108U 97082E   15085.47399054  .00000344  00000-0  11581-3 0  9992
2 25108 086.3955 235.5178 0002180 097.7892 321.6679 14.34220758903741
Epoch (UTC): 26 March 2015 11:22:32
Eccentricity: 0.0002180
inclination: 86.3955°
perigee height: 776 km
apogee height: 779 km
right ascension of ascending node: 235.5178°
argument of perigee: 97.7892°
revolutions per day: 14.34220758
mean anomaly at epoch: 321.6679°
orbit number at epoch: 90374

The dashed part of the orbit path shows where the satellite is in the earth's shadow,  

DLR